Presure
78 105 131 126 116 87 86 122 161 127 153 145 129 116 154 163 142 188 227 158 163 90 94 164 107 169 144 152 158 104 133 153 94 119 88 98 106 89 92 133 99 107 134
92 83 152 89 91 150 155 143 136 93 144 139 171 175 145 142 161 179 177 211 163 168 118 93 143 161 128 138 106 154 150 93 164 158 123 85 89 99 142 153 89 99 102
96 151 135 121 83 84 103 89 122 110 147 153 90 166 149 153 158 147 198 76 187 87 136 147 91 95 113 148 141 114 123 110 84 170 119 153 109 139 88 118 104 112 122
128 127 139 106 84 148 158 90 154 184 153 87 131 147 146 149 157 145 209 154 135 187 154 88 89 91 95 96 147 151 149 102 70 85 160 165 121 143 111 85 113 142 142
127 155 101 101 106 142 154 134 159 118 94 151 142 91 160 142 173 185 193 184 186 187 175 156 89 90 90 95 85 152 152 133 165 124 110 129 135 89 86 169 100 144 133
167 109 90 96 113 103 92 149 152 154 152 145 143 99 168 162 182 177 207 184 193 185 179 134 96 85 90 87 93 92 84 149 152 161 159 176 139 173 79 77 90 113 168
129 130 153 152 172 151 128 142 135 152 153 145 150 175 171 171 201 194 195 174 192 190 133 96 175 102 75 88 94 102 95 93 90 151 139 153 164 112 98 140 180 170 141
157 174 151 184 142 144 165 161 144 169 144 138 182 174 192 182 205 190 209 172 182 165 161 208 192 173 171 82 90 93 95 97 98 109 113 138 108 110 126 136 167 136 170
197 145 151 188 194 201 155 145 135 136 149 145 207 203 195 192 158 202 187 175 173 172 144 190 151 205 181 84 80 84 124 82 88 97 98 166 128 122 131 115 117 122 150
182 189 201 182 186 190 194 151 192 178 209 170 203 192 192 182 187 195 192 183 175 173 125 139 189 213 198 183 183 83 84 88 92 95 96 94 93 98 94 92 91 92 93
167 183 178 170 221 197 184 156 186 177 185 192 194 194 186 210 193 192 191 177 182 169 162 165 149 181 181 198 181 177 143 165 118 88 88 86 81 86 84 95 94 94 92
196 191 222 161 187 198 171 179 185 182 181 188 189 169 192 188 201 180 186 181 184 175 141 135 138 170 160 170 205 157 190 179 171 173 137 101 175 127 89 89 92 94 78
212 190 147 225 219 190 174 126 172 133 187 186 167 143 155 181 189 190 177 190 179 165 139 129 124 176 132 143 145 173 146 180 182 147 184 176 166 157 115 154 176 176 177
202 200 211 211 218 204 194 154 190 187 196 182 161 182 201 194 188 183 182 178 188 181 177 145 155 151 150 151 139 138 172 161 141 143 160 168 167 175 179 174 172 175 173
201 123 159 175 182 205 203 147 194 170 177 184 167 187 187 190 194 188 179 165 176 180 174 155 121 143 133 134 130 136 130 139 141 136 179 159 185 170 168 153 160 153 157
184 194 194 206 211 208 102 142 173 176 165 174 185 191 180 188 192 190 183 181 173 186 130 135 129 119 150 143 131 127 139 144 135 143 154 158 150 164 151 175 177 180 178
170 190 192 213 212 208 205 205 197 180 155 194 180 166 163 195 193 145 186 183 180 174 179 147 159 164 150 117 171 123 127 136 138 121 131 119 147 126 178 162 169 170 187
194 195 192 204 207 200 204 203 194 136 187 200 193 179 210 188 194 192 186 189 179 166 175 170 183 132 143 150 138 120 134 116 120 125 134 128 132 166 123 124 165 167 164
199 198 184 189 178 214 206 203 201 199 168 205 204 206 212 189 194 190 186 188 191 181 177 178 165 160 154 153 143 150 125 128 154 148 144 124 153 122 145 123 149 145 124
194 185 187 187 184 173 166 186 174 199 182 204 206 204 216 217 197 185 192 186 190 204 184 168 175 162 123 151 132 151 155 138 136 138 122 149 155 157 121 142 128 179 136
207 195 189 186 185 184 181 154 191 195 192 198 202 207 205 206 203 215 189 182 148 136 189 186 176 130 173 174 124 132 156 138 139 140 144 120 151 150 141 142 149 120 123
185 193 201 187 198 198 193 187 183 195 192 179 194 193 185 192 202 197 206 199 213 188 150 183 183 187 179 164 187 160 185 122 118 133 167 138 134 144 126 172 169 138 140
181 187 181 193 200 201 184 188 201 198 198 190 196 172 184 183 184 199 199 201 209 214 208 192 181 179 186 157 183 166 165 132 126 115 178 150 110 109 156 156 146 126 144
183 182 185 168 187 198 202 205 203 195 192 191 187 186 179 130 176 199 199 177 189 241 203 209 203 186 168 180 149 162 132 132 184 138 117 122 148 143 147 144 142 141 134
181 170 181 182 178 187 187 197 193 185 187 193 190 193 196 121 193 193 189 201 217 221 234 218 216 206 200 170 158 126 149 136 147 149 145 177 136 138 135 131 130 125 131
166 180 182 171 181 177 171 175 177 175 176 179 187 190 193 189 191 186 185 193 188 176 202 203 225 227 228 127 214 195 175 170 143 134 137 166 128 152 123 131 132 132 171
Wind_Speed
30 40 47 48 44 33 31 43 40 40 46 46 40 44 42 42 36 32 32 42 41 32 31 57 33 59 47 50 56 26 39 47 21 34 17 23 23 12 13 33 17 20 31
40 40 50 39 40 45 45 41 51 34 47 47 40 40 42 36 38 35 35 35 40 43 37 32 50 50 43 45 31 52 48 24 50 55 36 17 16 19 40 43 12 22 22
47 51 47 50 33 38 42 41 49 43 52 49 39 44 45 39 41 39 35 17 40 33 42 41 30 32 38 53 48 34 38 35 23 54 36 48 30 43 18 28 26 29 31
55 53 50 52 46 47 48 45 50 45 49 40 46 48 46 45 43 43 32 43 35 47 50 34 31 31 33 30 53 53 50 31 6 16 53 57 35 48 31 13 31 45 42
58 62 55 56 54 51 49 49 50 48 50 51 49 45 49 44 41 41 40 50 49 49 53 50 34 35 34 35 31 56 55 42 59 42 38 38 43 19 12 61 19 50 39
67 60 56 58 55 56 54 53 53 55 54 55 54 52 49 52 42 44 42 54 49 52 54 47 37 37 40 37 40 39 32 50 51 58 56 61 39 64 17 14 23 30 61
63 60 64 63 64 57 55 55 56 53 54 56 54 46 43 41 40 43 46 52 48 52 46 32 66 44 22 38 45 45 43 39 36 46 36 49 58 38 33 49 60 58 49
74 72 66 66 61 58 59 54 57 53 59 59 44 48 39 45 41 44 45 53 55 54 53 55 68 67 64 29 42 44 45 45 44 46 43 49 44 43 45 44 55 47 56
64 66 66 63 59 56 60 57 59 59 60 58 40 40 39 44 48 44 53 57 58 59 47 57 44 70 64 36 24 28 47 28 33 47 45 59 50 50 48 43 45 46 50
64 62 61 64 62 59 56 59 51 55 43 54 40 42 43 46 47 49 52 59 61 59 48 45 55 66 65 64 66 35 36 39 42 44 41 38 35 40 36 33 32 33 34
69 64 64 67 57 59 56 57 53 54 46 44 41 43 45 45 48 51 55 58 62 59 58 56 43 54 53 67 58 57 52 61 49 38 37 33 27 30 28 41 38 38 34
68 66 52 69 60 56 60 56 54 52 49 46 45 50 48 49 51 51 57 60 61 62 54 49 46 52 48 46 64 46 69 59 53 55 47 44 62 53 40 40 42 44 27
60 54 70 51 54 59 59 54 55 58 49 48 54 59 54 51 52 54 54 59 61 59 56 52 49 58 45 45 46 50 42 57 63 43 67 62 56 48 45 48 66 66 66
54 56 52 52 54 56 58 52 56 51 49 53 60 52 51 54 55 55 56 57 61 62 62 57 54 52 50 51 49 46 51 47 46 51 46 51 53 62 66 62 60 61 62
54 64 62 51 59 55 57 56 55 56 54 54 55 52 53 56 57 57 58 57 59 61 61 61 53 54 52 50 51 48 47 46 46 47 59 52 66 59 56 49 57 53 56
58 58 58 54 55 57 50 61 54 57 57 54 55 58 58 59 59 59 61 60 61 64 62 62 58 55 56 54 55 53 51 48 52 51 49 50 49 55 50 64 62 67 66
62 61 58 55 56 57 58 56 55 62 60 59 58 58 60 64 65 56 63 63 63 61 62 65 62 61 59 54 60 57 55 53 54 55 52 52 52 52 60 55 58 60 76
60 59 58 54 54 55 54 54 57 59 61 59 60 59 67 67 69 67 65 67 65 63 64 64 65 63 63 62 60 57 56 57 60 58 58 60 59 63 58 58 56 62 57
59 59 61 57 53 52 53 53 55 58 65 58 59 60 63 65 71 70 67 66 69 69 67 66 65 66 67 67 65 65 60 61 63 63 60 60 59 62 58 49 68 64 62
62 63 62 60 58 55 57 55 55 57 62 57 59 61 59 61 71 70 72 66 69 72 71 67 67 68 66 70 66 67 68 66 66 64 59 63 62 64 57 63 68 70 63
61 65 65 64 61 60 60 61 60 60 61 61 58 56 59 62 65 64 73 70 70 70 73 75 73 73 72 74 70 69 70 69 68 67 67 63 66 66 66 67 64 68 62
66 65 64 66 60 62 64 62 61 62 62 58 61 56 62 59 61 66 65 73 69 73 71 75 76 78 76 74 76 75 78 72 65 64 76 73 72 71 72 77 76 72 73
70 69 68 65 64 64 64 63 63 64 64 64 63 57 60 62 62 63 66 67 66 67 73 78 77 77 78 79 80 78 79 80 69 67 81 76 60 60 76 76 76 71 74
75 72 73 69 68 66 62 58 59 62 63 65 65 64 65 81 64 63 65 66 69 53 71 73 79 82 79 79 81 81 85 85 85 74 76 77 80 80 79 79 80 80 79
77 75 74 72 71 68 66 59 59 74 65 68 67 65 62 76 63 65 67 61 52 53 50 64 71 76 84 86 84 87 86 84 84 84 85 89 83 84 84 86 86 84 83
81 80 80 76 77 73 67 67 69 75 72 68 69 67 66 66 66 68 67 67 69 71 65 67 54 58 61 73 79 86 87 89 92 92 90 91 91 91 89 90 89 89 94
Wind_Direction
262 259 257 257 257 256 258 256 247 254 249 256 253 246 255 250 248 261 237 236 234 241 235 219 234 213 229 224 225 230 232 231 229 232 246 221 226 234 222 240 229 235 249
254 262 259 263 258 256 254 260 260 260 254 260 253 252 255 250 253 250 242 221 232 215 228 239 226 215 233 231 234 229 228 232 228 228 232 257 252 231 243 245 238 233 237
255 261 255 253 239 261 257 259 257 256 255 251 265 249 257 250 255 248 234 234 214 242 229 225 242 243 235 228 232 232 235 234 244 232 237 236 229 238 261 252 239 238 246
252 249 257 248 259 259 258 260 250 261 249 256 254 256 256 259 256 252 216 229 219 207 225 241 242 243 246 245 232 230 232 242 257 256 234 237 248 242 246 271 232 249 255
249 256 253 254 262 257 256 253 254 256 256 254 257 258 252 254 251 235 218 218 212 205 213 218 237 239 240 244 238 230 233 235 234 238 242 236 239 250 268 246 259 248 249
256 258 261 261 257 256 261 251 254 252 252 255 257 257 251 249 241 239 206 219 206 205 211 226 236 243 237 238 237 238 244 237 238 236 239 242 248 244 275 280 263 261 254
247 249 259 258 258 256 254 256 257 253 251 255 255 249 250 239 226 222 215 227 210 207 235 236 216 238 234 245 236 240 238 244 250 246 248 242 241 244 253 251 251 253 255
258 258 258 258 254 254 257 254 253 258 252 254 257 249 238 240 224 230 212 225 217 227 228 219 214 224 226 249 245 244 244 243 247 247 249 248 246 246 240 250 255 256 259
260 255 257 258 259 258 252 250 251 253 251 253 244 236 232 232 248 223 218 222 224 223 233 221 231 219 225 252 243 251 247 250 258 247 248 245 242 240 242 247 247 245 259
256 258 259 256 256 255 255 253 256 256 244 249 242 236 232 235 229 215 216 218 222 221 234 233 228 227 228 230 229 254 258 258 258 253 254 258 262 259 265 268 266 266 269
253 256 255 256 248 251 252 254 254 255 252 245 241 235 233 230 225 218 216 222 222 226 228 236 235 234 235 231 236 237 245 243 253 261 260 262 251 268 267 267 269 270 271
254 255 250 256 252 249 250 251 251 250 250 245 241 242 233 230 224 225 221 223 222 226 235 235 234 235 234 233 233 237 237 242 250 251 256 261 254 259 268 271 272 270 250
249 251 248 245 242 248 249 241 252 243 249 246 245 246 246 231 228 225 227 222 225 232 235 233 240 235 228 231 237 236 236 244 246 239 250 251 252 250 261 253 262 264 265
247 249 248 244 240 242 245 244 248 249 241 244 244 240 234 233 227 228 226 228 226 228 231 233 237 234 232 235 232 235 239 238 240 241 244 249 251 254 256 257 260 263 264
241 243 245 244 244 240 240 241 242 243 244 241 243 242 236 235 232 226 229 231 230 229 230 235 237 237 235 246 235 235 235 239 243 246 250 248 250 254 255 252 257 256 259
242 245 245 245 242 239 249 238 248 243 243 245 242 240 238 237 234 230 227 231 230 233 240 239 239 240 239 239 234 239 241 243 245 244 243 243 249 251 253 262 263 264 266
244 243 245 242 241 240 241 241 240 243 241 239 240 242 240 235 234 239 231 229 233 231 233 237 234 236 239 243 244 239 243 241 245 248 253 257 248 257 258 251 257 264 269
242 243 243 240 240 242 242 241 241 250 242 239 239 239 236 239 235 234 233 232 231 235 234 233 237 243 243 243 244 243 243 249 251 253 250 253 251 255 262 263 257 262 258
242 242 245 243 242 239 237 237 238 241 241 243 239 237 237 237 236 236 236 234 234 235 234 236 233 238 239 242 245 245 244 247 251 251 251 254 254 259 252 254 266 262 270
241 243 243 243 243 240 238 244 244 239 240 238 238 237 236 238 237 239 239 238 237 235 239 238 237 239 251 242 248 246 249 247 249 250 254 252 254 258 262 258 262 262 263
239 241 242 244 244 244 242 237 240 236 242 242 240 237 236 237 238 242 240 240 234 233 240 243 241 245 241 244 251 251 249 248 249 250 252 256 256 256 256 256 259 265 269
241 241 240 244 240 238 242 244 245 242 241 245 243 241 238 238 239 239 242 241 241 240 241 242 244 246 244 244 246 247 248 255 257 254 254 252 254 256 259 261 261 259 260
241 239 242 239 241 236 245 246 242 243 244 243 242 240 239 240 240 243 243 243 243 243 242 245 243 245 247 246 248 248 250 248 254 262 256 254 265 266 260 262 257 260 259
238 240 241 243 241 239 239 238 238 241 239 241 244 241 242 243 241 243 244 244 244 245 242 244 244 247 245 248 245 248 253 252 255 258 265 263 256 258 256 256 257 259 260
240 246 244 242 245 241 240 232 230 239 240 238 239 240 240 252 243 245 244 246 244 244 243 247 246 247 246 247 253 249 251 250 253 254 259 257 255 256 256 258 259 262 260
244 237 237 243 240 243 240 241 240 244 246 246 243 242 239 241 244 247 248 249 248 246 245 246 244 248 250 256 250 251 251 254 254 256 255 258 259 259 265 259 259 259 268